Location: Apollinopolis Magna
(24.9792°N, 32.8772°E)
Time: 10:17:54
(UTC+00:00)

Cosmos 1862 Rocket - Pass Details

Date: 02 March 2021
Orbit: 603 x 634 km, 82.5° (Epoch: 15 April)

Event Time Altitude Azimuth Distance (km) Brightness Sun altitude
Rises 17:11:04 0° 348° (NNW) 2,928 7.2 -18.9°
Reaches altitude 10° 17:13:20 10° 344° (NNW) 2,016 6.4 -19.4°
Maximum altitude 17:17:43 55° 267° (W) 754 4.3 -20.4°
Drops below altitude 10° 17:22:02 10° 189° (S) 1,995 6.2 -21.4°
Sets 17:24:17 0° 185° (S) 2,894 7.0 -21.9°
